AI9F Weather Reports


time (UTC)temp
C
wind
direction
speed
KPH
gust
KPH
rain 1hr
cm
rain 24hr
cm
rain mn
cm
humidity
%
barometer
mb
20260906113841 22 80 1.6 1.6 0.00 0.00 0.00 93 1014.8
20260906113340 22 104 0.0 0.0 0.00 0.00 0.00 93 1014.8
20260906112836 22 105 0.0 0.0 0.00 0.00 0.00 93 1014.8
20260906112332 22 97 1.6 1.6 0.00 0.00 0.00 93 1014.8
20260906111832 22 88 3.2 3.2 0.00 0.00 0.00 93 1014.6
20260906111331 22 83 0.0 0.0 0.00 0.00 0.00 93 1014.5
20260906110827 22 83 0.0 0.0 0.00 0.00 0.00 93 1014.3
20260906110323 22 83 1.6 1.6 0.00 0.00 0.00 93 1014.6
20260906105821 22 84 0.0 0.0 0.00 0.00 0.00 93 1014.3
20260906105317 22 83 0.0 0.0 0.00 0.00 0.00 93 1014.2
20260906104813 22 106 1.6 1.6 0.00 0.00 0.00 93 1014.2
20260906104312 22 84 0.0 0.0 0.00 0.00 0.00 94 1014.3
20260906103810 22 87 0.0 0.0 0.00 0.00 0.00 94 1014.4
20260906103309 22 63 3.2 3.2 0.00 0.00 0.00 94 1014.3
20260906102805 22 107 1.6 1.6 0.00 0.00 0.00 94 1014.3
20260906102306 22 69 1.6 3.2 0.00 0.00 0.00 94 1014.0
20260906101800 22 101 0.0 0.0 0.00 0.00 0.00 94 1014.0
20260906101300 22 64 0.0 1.6 0.00 0.00 0.00 94 1014.2
20260906100755 22 92 0.0 0.0 0.00 0.00 0.00 94 1014.0
20260906100254 22 78 1.6 1.6 0.00 0.00 0.00 94 1014.0
20260906095750 22 67 3.2 3.2 0.00 0.00 0.00 94 1013.9
20260906095245 22 105 0.0 1.6 0.00 0.00 0.00 94 1014.0
20260906094744 22 97 0.0 1.6 0.00 0.00 0.00 94 1013.9
20260906094239 21 101 1.6 3.2 0.00 0.00 0.00 94 1013.9
20260906093736 21 108 0.0 1.6 0.00 0.00 0.00 94 1013.7
20260906093231 21 96 0.0 0.0 0.00 0.00 0.00 94 1013.6
20260906092726 21 95 0.0 0.0 0.00 0.00 0.00 94 1013.7
20260906092226 21 141 1.6 1.6 0.00 0.00 0.00 94 1013.6
20260906091722 21 99 0.0 0.0 0.00 0.00 0.00 93 1013.7
20260906091218 22 105 0.0 0.0 0.00 0.00 0.00 93 1013.6
20260906090715 22 130 0.0 1.6 0.00 0.00 0.00 93 1013.5
20260906090214 22 113 0.0 0.0 0.00 0.00 0.00 93 1013.8
20260906085713 22 126 0.0 0.0 0.00 0.00 0.00 93 1013.6
20260906085212 22 81 1.6 1.6 0.00 0.00 0.00 92 1013.5
20260906084707 22 153 1.6 1.6 0.00 0.00 0.00 92 1013.6
20260906084207 22 91 0.0 0.0 0.00 0.00 0.00 92 1013.4
20260906083701 22 109 0.0 0.0 0.00 0.00 0.00 92 1013.6
20260906083157 22 128 1.6 3.2 0.00 0.00 0.00 92 1013.7
20260906082652 22 82 1.6 3.2 0.00 0.00 0.00 92 1013.6
20260906082147 22 89 0.0 0.0 0.00 0.00 0.00 92 1013.5
20260906081643 22 68 1.6 3.2 0.00 0.00 0.00 91 1013.7
20260906081138 22 80 0.0 0.0 0.00 0.00 0.00 91 1013.7
20260906080635 22 80 0.0 0.0 0.00 0.00 0.00 91 1013.7
20260906080131 23 80 0.0 1.6 0.00 0.00 0.00 91 1013.7
20260906075630 23 80 0.0 0.0 0.00 0.00 0.00 91 1013.6
20260906075125 23 83 0.0 0.0 0.00 0.00 0.00 90 1013.5
20260906074620 23 83 0.0 0.0 0.00 0.00 0.00 90 1013.6
20260906074119 23 78 1.6 1.6 0.00 0.00 0.00 90 1013.5
20260906073614 23 78 0.0 1.6 0.00 0.00 0.00 90 1013.5
20260906073109 23 78 0.0 0.0 0.00 0.00 0.00 90 1013.5
20260906072604 23 78 0.0 0.0 0.00 0.00 0.00 89 1013.6
20260906072101 23 78 0.0 0.0 0.00 0.00 0.00 89 1013.5
20260906071557 23 78 0.0 0.0 0.00 0.00 0.00 89 1013.5
20260906071057 23 78 0.0 0.0 0.00 0.00 0.00 90 1013.5
20260906070554 23 78 0.0 0.0 0.00 0.00 0.00 90 1013.6
20260906070049 23 78 0.0 0.0 0.00 0.00 0.00 90 1013.3
20260906065548 23 78 0.0 0.0 0.00 0.00 0.00 90 1013.5
20260906065044 23 78 0.0 0.0 0.00 0.00 0.00 89 1013.5
20260906064540 23 78 0.0 0.0 0.00 0.00 0.00 89 1013.5
20260906064035 24 78 1.6 1.6 0.00 0.00 0.00 87 1013.4
20260906063530 24 78 0.0 1.6 0.00 0.00 0.00 87 1013.7
20260906063026 24 78 0.0 0.0 0.00 0.00 0.00 85 1013.7
20260906062521 24 78 0.0 0.0 0.00 0.00 0.00 85 1013.7
20260906062015 25 78 0.0 0.0 0.00 0.00 0.00 84 1013.8
20260906061511 25 78 0.0 0.0 0.00 0.00 0.00 83 1013.8
20260906061010 25 78 0.0 0.0 0.00 0.00 0.00 82 1013.7
20260906060508 25 78 0.0 0.0 0.00 0.00 0.00 81 1013.8
20260906060004 25 78 0.0 0.0 0.00 0.00 0.00 81 1014.0
20260906055500 25 78 1.6 1.6 0.00 0.00 0.00 81 1013.9
20260906054955 25 79 0.0 0.0 0.00 0.00 0.00 80 1013.6
20260906054454 25 79 1.6 1.6 0.00 0.00 0.00 80 1013.7
20260906053950 25 79 1.6 1.6 0.00 0.00 0.00 80 1014.0
20260906053446 25 80 0.0 0.0 0.00 0.00 0.00 80 1013.9
20260906052942 26 83 0.0 0.0 0.00 0.00 0.00 79 1013.9
20260906052438 26 82 1.6 1.6 0.00 0.00 0.00 79 1013.9
20260906051934 26 83 0.0 0.0 0.00 0.00 0.00 78 1013.8
20260906051429 26 83 0.0 0.0 0.00 0.00 0.00 77 1013.7
20260906050925 26 83 0.0 0.0 0.00 0.00 0.00 76 1013.7
20260906050425 26 83 0.0 0.0 0.00 0.00 0.00 76 1013.5
20260906045924 26 83 1.6 1.6 0.00 0.00 0.00 76 1013.7
20260906045423 27 82 1.6 1.6 0.00 0.00 0.00 75 1013.7
20260906044920 27 92 0.0 0.0 0.00 0.00 0.00 75 1013.7
20260906044420 27 92 1.6 1.6 0.00 0.00 0.00 74 1013.5
20260906043915 27 79 3.2 3.2 0.00 0.00 0.00 75 1013.5
20260906043411 27 114 1.6 1.6 0.00 0.00 0.00 75 1013.4
20260906042906 27 103 0.0 0.0 0.00 0.00 0.00 76 1013.3
20260906042406 27 93 1.6 1.6 0.00 0.00 0.00 76 1013.4
20260906041901 27 96 1.6 1.6 0.00 0.00 0.00 77 1013.4
20260906041357 27 100 0.0 1.6 0.00 0.00 0.00 78 1013.4
20260906040856 27 99 1.6 1.6 0.00 0.00 0.00 79 1013.5
20260906040352 27 81 1.6 1.6 0.00 0.00 0.00 79 1013.2
20260906035847 27 97 1.6 1.6 0.00 0.00 0.00 79 1013.1
20260906035342 27 96 3.2 3.2 0.00 0.00 0.00 79 1013.0
20260906034838 28 109 1.6 1.6 0.00 0.00 0.00 79 1013.0
20260906034333 28 103 1.6 3.2 0.00 0.00 0.00 78 1013.1
20260906033829 28 134 1.6 0.0 0.00 0.00 0.00 78 1013.0
20260906033327 28 117 1.6 1.6 0.00 0.00 0.00 78 1013.0
20260906032824 28 95 0.0 0.0 0.00 0.00 0.00 78 1012.6
20260906032320 27 91 0.0 0.0 0.00 0.00 0.00 78 1012.7
20260906031815 27 94 0.0 0.0 0.00 0.00 0.00 79 1012.6
20260906031310 27 95 0.0 0.0 0.00 0.00 0.00 79 1012.4
20260906030810 27 95 0.0 0.0 0.00 0.00 0.00 78 1012.3
20260906030305 27 95 0.0 0.0 0.00 0.00 0.00 78 1012.2
20260906025805 27 95 0.0 0.0 0.00 0.00 0.00 77 1012.2
20260906025259 28 95 0.0 0.0 0.00 0.00 0.00 76 1012.2
20260906024758 28 95 0.0 0.0 0.00 0.00 0.00 76 1012.1
20260906024257 28 95 0.0 0.0 0.00 0.00 0.00 75 1012.0
20260906023753 28 95 0.0 0.0 0.00 0.00 0.00 74 1012.1
20260906023248 28 96 0.0 0.0 0.00 0.00 0.00 74 1012.1
20260906022744 28 96 0.0 0.0 0.00 0.00 0.00 75 1012.0
20260906022239 28 96 1.6 1.6 0.00 0.00 0.00 75 1012.0
20260906021735 28 98 0.0 0.0 0.00 0.00 0.00 76 1011.9
20260906021234 28 101 0.0 0.0 0.00 0.00 0.00 75 1012.0
20260906020729 28 101 0.0 0.0 0.00 0.00 0.00 74 1011.8
20260906020223 28 101 0.0 0.0 0.00 0.00 0.00 73 1011.8
20260906015723 28 101 0.0 0.0 0.00 0.00 0.00 73 1011.6
20260906015221 28 101 0.0 0.0 0.00 0.00 0.00 72 1011.7
20260906014716 28 101 0.0 0.0 0.00 0.00 0.00 72 1011.6
20260906014213 28 101 1.6 1.6 0.00 0.00 0.00 71 1011.8
20260906013708 28 101 0.0 0.0 0.00 0.00 0.00 71 1011.8
20260906013208 28 101 0.0 0.0 0.00 0.00 0.00 71 1011.7
20260906012704 28 101 0.0 0.0 0.00 0.00 0.00 71 1011.5
20260906012204 28 101 0.0 0.0 0.00 0.00 0.00 71 1011.5
20260906011700 28 101 1.6 1.6 0.00 0.00 0.00 70 1011.6
20260906011159 29 101 0.0 0.0 0.00 0.00 0.00 70 1011.1
20260906010655 29 101 0.0 0.0 0.00 0.00 0.00 69 1011.3
20260906010152 29 101 0.0 0.0 0.00 0.00 0.00 68 1011.3
20260906005651 30 101 0.0 0.0 0.00 0.00 0.00 68 1011.1
20260906005150 30 101 0.0 0.0 0.00 0.00 0.00 67 1011.3
20260906004649 30 101 0.0 0.0 0.00 0.00 0.00 67 1011.2
20260906004144 30 101 0.0 0.0 0.00 0.00 0.00 66 1011.3
20260906003640 30 101 0.0 0.0 0.00 0.00 0.00 65 1011.3
20260906003135 30 101 0.0 0.0 0.00 0.00 0.00 65 1011.2
20260906002630 30 101 0.0 0.0 0.00 0.00 0.00 64 1011.3
20260906002125 31 101 0.0 0.0 0.00 0.00 0.00 63 1011.4
20260906001621 31 101 0.0 0.0 0.00 0.00 0.00 62 1011.3
20260906001120 31 101 0.0 0.0 0.00 0.00 0.00 61 1011.2
20260906000616 31 101 0.0 0.0 0.00 0.00 0.00 60 1011.4
20260906000111 32 101 0.0 0.0 0.00 0.00 0.00 59 1011.5
20260905235610 32 101 0.0 0.0 0.00 0.00 0.00 58 1011.1
20260905235105 32 101 0.0 0.0 0.00 0.00 0.00 57 1011.2
20260905234601 33 101 0.0 0.0 0.00 0.00 0.00 56 1011.2
20260905234056 33 101 0.0 0.0 0.00 0.00 0.00 54 1011.2
20260905233555 33 101 0.0 0.0 0.00 0.00 0.00 54 1011.1
20260905233050 34 101 0.0 0.0 0.00 0.00 0.00 52 1011.3
20260905232546 34 101 0.0 0.0 0.00 0.00 0.00 52 1010.9
20260905232041 35 101 0.0 0.0 0.00 0.00 0.00 49 1011.1
20260905231536 35 101 0.0 0.0 0.00 0.00 0.00 52 1011.0
20260905231033 35 108 0.0 0.0 0.00 0.00 0.00 49 1010.8
20260905230532 35 116 0.0 0.0 0.00 0.00 0.00 47 1010.9
20260905230031 36 106 1.6 1.6 0.00 0.00 0.00 45 1011.1
20260905225526 36 115 1.6 1.6 0.00 0.00 0.00 45 1011.1
20260905225021 35 126 0.0 0.0 0.00 0.00 0.00 46 1011.0
20260905224521 35 135 0.0 0.0 0.00 0.00 0.00 45 1011.1
20260905224020 35 92 3.2 3.2 0.00 0.00 0.00 43 1011.1
20260905223518 36 149 1.6 1.6 0.00 0.00 0.00 44 1011.0
20260905223014 36 98 1.6 1.6 0.00 0.00 0.00 44 1011.1
20260905222513 36 141 1.6 1.6 0.00 0.00 0.00 43 1011.1
20260905222009 36 106 1.6 1.6 0.00 0.00 0.00 43 1011.1
20260905221505 36 110 1.6 1.6 0.00 0.00 0.00 41 1011.0
20260905221001 37 154 1.6 1.6 0.00 0.00 0.00 42 1010.9
20260905220457 37 159 1.6 1.6 0.00 0.00 0.00 42 1010.8
20260905215956 37 147 1.6 1.6 0.00 0.00 0.00 42 1011.0
20260905215452 37 162 3.2 1.6 0.00 0.00 0.00 42 1010.8
20260905214948 36 125 0.0 0.0 0.00 0.00 0.00 42 1011.0
20260905214444 36 152 1.6 3.2 0.00 0.00 0.00 42 1010.9
20260905213943 36 146 1.6 1.6 0.00 0.00 0.00 44 1011.0
20260905213440 36 158 1.6 1.6 0.00 0.00 0.00 44 1011.0
20260905212935 36 182 3.2 3.2 0.00 0.00 0.00 44 1011.2
20260905212430 36 163 3.2 3.2 0.00 0.00 0.00 43 1011.1
20260905211928 36 117 1.6 1.6 0.00 0.00 0.00 42 1010.9
20260905211425 35 150 1.6 1.6 0.00 0.00 0.00 46 1011.0
20260905210921 35 110 1.6 1.6 0.00 0.00 0.00 49 1011.1
20260905210421 34 143 1.6 1.6 0.00 0.00 0.00 49 1011.1
20260905205920 33 164 1.6 1.6 0.00 0.00 0.00 53 1011.2
20260905205415 33 187 3.2 3.2 0.00 0.00 0.00 54 1011.4
20260905204914 32 143 1.6 1.6 0.00 0.00 0.00 53 1011.3
20260905204410 32 175 1.6 1.6 0.00 0.00 0.00 52 1011.5
20260905203909 33 137 1.6 0.0 0.00 0.00 0.00 52 1011.4
20260905203404 33 128 1.6 1.6 0.00 0.00 0.00 51 1011.5
20260905202900 33 180 3.2 3.2 0.00 0.00 0.00 49 1011.6
20260905202355 34 155 1.6 3.2 0.00 0.00 0.00 49 1011.7
20260905201851 35 112 0.0 0.0 0.00 0.00 0.00 47 1011.7
20260905201346 35 155 3.2 3.2 0.00 0.00 0.00 46 1011.7
20260905200845 36 104 6.4 6.4 0.00 0.00 0.00 45 1011.7
20260905200342 36 189 3.2 3.2 0.00 0.00 0.00 43 1011.5
20260905195840 37 172 4.8 6.4 0.00 0.00 0.00 42 1011.7
20260905195335 37 185 3.2 4.8 0.00 0.00 0.00 40 1011.4
20260905194831 37 253 6.4 9.7 0.00 0.00 0.00 39 1011.7
20260905194330 38 173 3.2 3.2 0.00 0.00 0.00 37 1011.7
20260905193829 39 119 1.6 1.6 0.00 0.00 0.00 36 1011.7
20260905193324 38 139 3.2 3.2 0.00 0.00 0.00 40 1011.5
20260905192820 39 166 1.6 1.6 0.00 0.00 0.00 37 1011.6
20260905192316 39 324 8.0 12.9 0.00 0.00 0.00 36 1011.6
20260905191815 37 137 3.2 3.2 0.00 0.00 0.00 40 1011.7
20260905191314 37 241 6.4 9.7 0.00 0.00 0.00 39 1011.9
20260905190812 37 173 3.2 3.2 0.00 0.00 0.00 40 1011.7
20260905190307 38 195 3.2 3.2 0.00 0.00 0.00 38 1011.6
20260905185806 38 144 1.6 1.6 0.00 0.00 0.00 37 1011.9
20260905185305 40 229 8.0 9.7 0.00 0.00 0.00 36 1012.0
20260905184800 40 150 1.6 1.6 0.00 0.00 0.00 36 1012.0
20260905184259 38 101 1.6 3.2 0.00 0.00 0.00 36 1012.1
20260905183758 38 256 6.4 11.3 0.00 0.00 0.00 38 1012.2
20260905183254 38 159 1.6 1.6 0.00 0.00 0.00 37 1012.3
20260905182754 38 172 3.2 3.2 0.00 0.00 0.00 40 1012.4
20260905182253 38 115 1.6 1.6 0.00 0.00 0.00 39 1012.4
20260905181749 38 217 4.8 4.8 0.00 0.00 0.00 39 1012.6
20260905181249 38 221 8.0 11.3 0.00 0.00 0.00 38 1012.5
20260905180748 38 145 3.2 3.2 0.00 0.00 0.00 40 1012.7
20260905180243 38 256 4.8 4.8 0.00 0.00 0.00 40 1012.5
20260905175738 37 124 0.0 0.0 0.00 0.00 0.00 38 1012.7
20260905175233 38 214 8.0 11.3 0.00 0.00 0.00 38 1012.5
20260905174728 38 189 3.2 4.8 0.00 0.00 0.00 39 1012.4
20260905174224 38 114 0.0 0.0 0.00 0.00 0.00 44 1012.6
20260905173720 37 154 1.6 1.6 0.00 0.00 0.00 42 1012.8
20260905173216 38 254 8.0 11.3 0.00 0.00 0.00 39 1012.9
20260905172715 38 144 1.6 1.6 0.00 0.00 0.00 41 1013.0
20260905172215 37 119 1.6 3.2 0.00 0.00 0.00 42 1013.1
20260905171710 38 190 4.8 4.8 0.00 0.00 0.00 40 1012.9
20260905171206 37 193 6.4 9.7 0.00 0.00 0.00 41 1013.2
20260905170704 37 176 4.8 4.8 0.00 0.00 0.00 40 1013.1
20260905170204 37 156 1.6 1.6 0.00 0.00 0.00 40 1013.3
20260905165703 37 159 1.6 1.6 0.00 0.00 0.00 42 1013.2
20260905165159 37 137 0.0 0.0 0.00 0.00 0.00 43 1013.2
20260905164653 37 177 3.2 3.2 0.00 0.00 0.00 42 1013.4
20260905164153 37 169 3.2 3.2 0.00 0.00 0.00 42 1013.4
20260905163649 36 135 1.6 3.2 0.00 0.00 0.00 42 1013.2
20260905163145 36 153 1.6 1.6 0.00 0.00 0.00 42 1013.3
20260905162641 37 164 3.2 3.2 0.00 0.00 0.00 42 1013.3
20260905162141 36 166 3.2 3.2 0.00 0.00 0.00 45 1013.7
20260905161641 36 159 1.6 3.2 0.00 0.00 0.00 47 1013.6
20260905161139 36 163 1.6 1.6 0.00 0.00 0.00 46 1014.0
20260905160633 36 203 8.0 9.7 0.00 0.00 0.00 44 1013.7
20260905160133 35 152 1.6 1.6 0.00 0.00 0.00 45 1013.6
20260905155633 35 141 0.0 0.0 0.00 0.00 0.00 46 1013.6
20260905155131 35 209 1.6 3.2 0.00 0.00 0.00 48 1013.5
20260905154626 35 190 6.4 6.4 0.00 0.00 0.00 47 1013.7
20260905154121 35 140 1.6 1.6 0.00 0.00 0.00 49 1014.1
20260905153617 35 179 1.6 3.2 0.00 0.00 0.00 51 1013.9
20260905153112 35 145 1.6 1.6 0.00 0.00 0.00 48 1013.9
20260905152607 34 343 3.2 3.2 0.00 0.00 0.00 47 1013.9
20260905152102 34 167 1.6 3.2 0.00 0.00 0.00 48 1013.9
20260905151557 34 178 1.6 1.6 0.00 0.00 0.00 50 1013.7
20260905151052 33 145 1.6 1.6 0.00 0.00 0.00 53 1013.8
20260905150547 33 184 3.2 3.2 0.00 0.00 0.00 54 1013.8
20260905150045 33 187 1.6 1.6 0.00 0.00 0.00 56 1013.7
20260905145539 32 158 1.6 1.6 0.00 0.00 0.00 56 1013.7
20260905145038 32 175 3.2 3.2 0.00 0.00 0.00 62 1013.7
20260905144533 32 148 1.6 1.6 0.00 0.00 0.00 60 1013.9
20260905144032 32 185 1.6 1.6 0.00 0.00 0.00 63 1013.7
20260905143531 31 184 0.0 0.0 0.00 0.00 0.00 60 1013.8
20260905143027 31 165 1.6 1.6 0.00 0.00 0.00 62 1013.9
20260905142525 31 130 1.6 1.6 0.00 0.00 0.00 63 1013.9
20260905142021 31 162 1.6 1.6 0.00 0.00 0.00 65 1014.0
20260905141515 31 161 1.6 1.6 0.00 0.00 0.00 67 1013.8
20260905141012 30 161 1.6 1.6 0.00 0.00 0.00 67 1014.0
20260905140506 30 162 1.6 1.6 0.00 0.00 0.00 67 1014.0
20260905140005 30 161 1.6 1.6 0.00 0.00 0.00 67 1014.2
20260905135501 30 161 1.6 1.6 0.00 0.00 0.00 68 1014.1
20260905134956 30 161 0.0 0.0 0.00 0.00 0.00 69 1014.1
20260905134455 29 161 0.0 0.0 0.00 0.00 0.00 71 1014.2
20260905133955 29 161 1.6 1.6 0.00 0.00 0.00 72 1014.3
20260905133450 29 161 0.0 0.0 0.00 0.00 0.00 71 1014.1
20260905132949 28 161 1.6 1.6 0.00 0.00 0.00 71 1014.1
20260905132444 28 161 1.6 1.6 0.00 0.00 0.00 72 1014.1
20260905131939 28 161 1.6 1.6 0.00 0.00 0.00 74 1014.3
20260905131436 27 161 0.0 0.0 0.00 0.00 0.00 75 1014.4
20260905130930 27 161 0.0 0.0 0.00 0.00 0.00 75 1014.1
20260905130430 27 161 0.0 0.0 0.00 0.00 0.00 76 1014.3
20260905125929 27 161 0.0 0.0 0.00 0.00 0.00 78 1014.4
20260905125424 26 161 0.0 0.0 0.00 0.00 0.00 82 1014.1
20260905124920 25 161 0.0 0.0 0.00 0.00 0.00 83 1014.1
20260905124416 25 161 0.0 0.0 0.00 0.00 0.00 85 1014.1
20260905123916 24 161 0.0 0.0 0.00 0.00 0.00 87 1014.1
20260905123413 24 161 0.0 0.0 0.00 0.00 0.00 88 1014.1
20260905122908 24 161 0.0 0.0 0.00 0.00 0.00 89 1013.9
20260905122407 23 161 0.0 0.0 0.00 0.00 0.00 89 1013.8
20260905121903 23 161 0.0 0.0 0.00 0.00 0.00 89 1014.0
20260905121359 23 161 0.0 0.0 0.00 0.00 0.00 89 1013.9
20260905120858 23 161 0.0 0.0 0.00 0.00 0.00 89 1013.9
20260905120358 23 160 1.6 0.0 0.00 0.00 0.00 89 1013.8
20260905115853 23 160 0.0 0.0 0.00 0.00 0.00 89 1013.8
20260905115352 23 160 0.0 0.0 0.00 0.00 0.00 89 1013.8
20260905114847 23 160 0.0 0.0 0.00 0.00 0.00 89 1013.6
20260905114346 23 160 0.0 0.0 0.00 0.00 0.00 90 1013.7